This is the latest recevied weather packets stored in our database for station/object KD0RIH. If no packets are shown the sender has not sent any weather packets the latest 1 day(s).
| Time | Temp. | Humidity | Pressure | Rain* | Wind** | Luminosity | Snow |
|---|---|---|---|---|---|---|---|
| 1778042080 | 10.56° C | 59% | 1013.5 hPa | 0 mm | 0 m/s | 0 W/m² | - |
| 1778041777 | 10.56° C | 63% | 1013.4 hPa | 0 mm | 0 m/s | 0 W/m² | - |
| 1778041477 | 10.56° C | 63% | 1013.5 hPa | 0 mm | 0 m/s | 0 W/m² | - |
| 1778041174 | 10.56° C | 63% | 1013.3 hPa | 0 mm | 0 m/s | 0 W/m² | - |
| 1778040872 | 10.56° C | 63% | 1013.3 hPa | 0 mm | 0 m/s | 0 W/m² | - |
| 1778040569 | 10.56° C | 63% | 1013.2 hPa | 0 mm | 0 m/s | 0 W/m² | - |
| 1778040266 | 11.11° C | 63% | 1013.2 hPa | 0 mm | 0 m/s | 0 W/m² | - |
| 1778039962 | 11.11° C | 63% | 1013.1 hPa | 0 mm | 0 m/s | 0 W/m² | - |
| 1778039660 | 10.56° C | 64% | 1013 hPa | 0 mm | 0 m/s | 0 W/m² | - |
| 1778039357 | 11.11° C | 66% | 1013.3 hPa | 0 mm | 0 m/s | 0 W/m² | - |
| 1778039054 | 11.11° C | 68% | 1013.3 hPa | 0 mm | 0 m/s | 0 W/m² | - |
| 1778038751 | 11.11° C | 68% | 1013.1 hPa | 0 mm | 0 m/s | 0 W/m² | - |
| 1778038448 | 11.11° C | 68% | 1013.1 hPa | 0 mm | 0 m/s | 0 W/m² | - |
| 1778038145 | 11.11° C | 66% | 1012.9 hPa | 0 mm | 0 m/s | 0 W/m² | - |
| 1778037841 | 11.11° C | 66% | 1012.9 hPa | 0 mm | 0 m/s | 0 W/m² | - |
| 1778037538 | 11.11° C | 65% | 1012.8 hPa | 0 mm | 0 m/s | 0 W/m² | - |
| 1778037236 | 11.11° C | 64% | 1012.8 hPa | 0 mm | 0 m/s | 0 W/m² | - |
| 1778036933 | 11.11° C | 64% | 1012.4 hPa | 0 mm | 0 m/s | 0 W/m² | - |
| 1778036631 | 11.11° C | 64% | 1012.3 hPa | 0 mm | 0 m/s | 0 W/m² | - |
| 1778036328 | 11.67° C | 63% | 1012.5 hPa | 0 mm | 0 m/s | 0 W/m² | - |
| 1778036024 | 11.67° C | 62% | 1012.5 hPa | 0 mm | 0 m/s | 0 W/m² | - |
| 1778035721 | 11.67° C | 62% | 1012.5 hPa | 0 mm | 0 m/s | 0 W/m² | - |
| 1778035418 | 11.67° C | 63% | 1012.4 hPa | 0 mm | 0 m/s | 0 W/m² | - |
| 1778035114 | 11.67° C | 66% | 1012.5 hPa | 0 mm | 0 m/s | 0 W/m² | - |
| 1778034811 | 11.67° C | 66% | 1012.3 hPa | 0 mm | 0 m/s | 0 W/m² | - |
* Rain latest hour (hover to see other rain measurements)
** Current wind speed in m/s (hover to see current wind gust speed)